ONEWEB-0161 (48053 NORAD) Tracking and Keplerian Element Data

This shows tracking and keplerian element data for the satellite.

Feedback or suggestion? Click here.




ElementValue
Catalog48053
NameONEWEB-0161
Epoch Orbit191
Epoch Day173.91668981
Epoch Year2021
RAAN322.2781
Inclination87.8419
Eccentricity0.0007294
Argument of Perigee350.9126
Mean Anonmoly347.5727
Mean Motion13.75379944
Decay Rate1.5E-07
L11 48053U 21025M 21173.91668981 .00000015 00000-0 00000-0 0 9998
L22 48053 87.8419 322.2781 0007294 350.9126 347.5727 13.75379944 1910

Live tracking and technical data element details for ONEWEB-0161 (NORAD 48053). ONEWEB-0161 can be tracked NOW for your location showing map with azimuth and elevation plus other details from your city location.

Track the satellite on the map from your city or location and see movement details for azimuth, elevation, latitude, longitude, range, height, and movement on the map or in text.







IsCatalogInMostPopularTable: catalog: 48053, numindb: 40
Update: records affected: 1



GetName: 48053 ONEWEB-0161

Hit Count: updated at: Thu, 24 Jun 2021 03:36:58 GMT